Private Wetterstation Sandau
Wetterdaten: Freitag, 17.08.2012
Datum Zeit Temp. A. Feuchte A. Luftdruck Regen Wind Richtung Richtung Taupunkt Windchill
17.08.2012 00:01 13,6 C 89 % 1021,2 hPa 0,0 l/m 0,0 km/h (0 Bft) N-NO 22 11,8 C 13,6 C
17.08.2012 00:06 13,6 C 90 % 1021,2 hPa 0,0 l/m 0,0 km/h (0 Bft) N-NO 22 12,0 C 13,6 C
17.08.2012 00:11 13,6 C 90 % 1021,4 hPa 0,0 l/m 0,0 km/h (0 Bft) N-NO 22 12,0 C 13,6 C
17.08.2012 00:16 13,6 C 90 % 1021,5 hPa 0,0 l/m 0,0 km/h (0 Bft) N-NO 22 12,0 C 13,6 C
17.08.2012 00:21 13,6 C 90 % 1021,5 hPa 0,0 l/m 0,0 km/h (0 Bft) N-NO 22 12,0 C 13,6 C
17.08.2012 00:26 13,6 C 90 % 1021,5 hPa 0,0 l/m 0,0 km/h (0 Bft) N-NO 22 12,0 C 13,6 C
17.08.2012 00:31 13,6 C 90 % 1021,5 hPa 0,0 l/m 0,0 km/h (0 Bft) N-NO 22 12,0 C 13,6 C
17.08.2012 00:36 13,5 C 90 % 1021,6 hPa 0,0 l/m 0,0 km/h (0 Bft) N-NO 22 11,9 C 13,5 C
17.08.2012 00:41 13,4 C 90 % 1021,4 hPa 0,0 l/m 0,0 km/h (0 Bft) N-NO 22 11,8 C 13,4 C
17.08.2012 00:46 13,3 C 90 % 1021,2 hPa 0,0 l/m 0,0 km/h (0 Bft) N-NO 22 11,7 C 13,3 C
17.08.2012 00:51 13,2 C 90 % 1021,3 hPa 0,0 l/m 0,0 km/h (0 Bft) N-NO 22 11,6 C 13,2 C
17.08.2012 00:56 13,1 C 90 % 1021,4 hPa 0,0 l/m 0,0 km/h (0 Bft) N-NO 22 11,5 C 13,1 C
17.08.2012 01:01 13,1 C 90 % 1021,4 hPa 0,0 l/m 0,0 km/h (0 Bft) N-NO 22 11,5 C 13,1 C
17.08.2012 01:06 13,1 C 90 % 1021,4 hPa 0,0 l/m 0,0 km/h (0 Bft) N-NO 22 11,5 C 13,1 C
17.08.2012 01:11 13,2 C 90 % 1021,4 hPa 0,0 l/m 0,0 km/h (0 Bft) N-NO 22 11,6 C 13,2 C
17.08.2012 01:16 13,3 C 91 % 1021,4 hPa 0,0 l/m 0,0 km/h (0 Bft) N-NO 22 11,9 C 13,3 C
17.08.2012 01:21 13,2 C 91 % 1021,4 hPa 0,0 l/m 0,0 km/h (0 Bft) N-NO 22 11,8 C 13,2 C
17.08.2012 01:26 13,1 C 90 % 1021,3 hPa 0,0 l/m 0,0 km/h (0 Bft) N-NO 22 11,5 C 13,1 C
17.08.2012 01:31 13,1 C 90 % 1021,4 hPa 0,0 l/m 0,0 km/h (0 Bft) N-NO 22 11,5 C 13,1 C
17.08.2012 01:36 13,1 C 90 % 1021,4 hPa 0,0 l/m 0,0 km/h (0 Bft) N-NO 22 11,5 C 13,1 C
17.08.2012 01:41 13,1 C 90 % 1021,4 hPa 0,0 l/m 0,0 km/h (0 Bft) N-NO 22 11,5 C 13,1 C
17.08.2012 01:46 13,1 C 90 % 1021,4 hPa 0,0 l/m 0,0 km/h (0 Bft) N-NO 22 11,5 C 13,1 C
17.08.2012 01:51 13,0 C 90 % 1021,4 hPa 0,0 l/m 0,0 km/h (0 Bft) N-NO 22 11,4 C 13,0 C
17.08.2012 01:56 12,9 C 90 % 1021,4 hPa 0,0 l/m 0,0 km/h (0 Bft) N-NO 22 11,3 C 12,9 C
17.08.2012 02:01 12,8 C 90 % 1021,5 hPa 0,0 l/m 0,0 km/h (0 Bft) N-NO 22 11,2 C 12,8 C
17.08.2012 02:06 12,8 C 90 % 1021,5 hPa 0,0 l/m 0,0 km/h (0 Bft) N-NO 22 11,2 C 12,8 C
17.08.2012 02:11 12,7 C 90 % 1021,5 hPa 0,0 l/m 0,0 km/h (0 Bft) N-NO 22 11,1 C 12,7 C
17.08.2012 02:16 12,7 C 90 % 1021,5 hPa 0,0 l/m 0,0 km/h (0 Bft) SW 225 11,1 C 12,7 C
17.08.2012 02:21 12,7 C 90 % 1021,5 hPa 0,0 l/m 0,0 km/h (0 Bft) SW 225 11,1 C 12,7 C
17.08.2012 02:26 12,6 C 91 % 1021,4 hPa 0,0 l/m 0,0 km/h (0 Bft) SW 225 11,2 C 12,6 C
17.08.2012 02:31 12,5 C 91 % 1021,4 hPa 0,0 l/m 0,0 km/h (0 Bft) SW 225 11,1 C 12,5 C
17.08.2012 02:36 12,4 C 91 % 1021,4 hPa 0,0 l/m 0,0 km/h (0 Bft) SW 225 11,0 C 12,4 C
17.08.2012 02:41 12,4 C 91 % 1021,4 hPa 0,0 l/m 0,0 km/h (0 Bft) SW 225 11,0 C 12,4 C
17.08.2012 02:46 12,4 C 91 % 1021,4 hPa 0,0 l/m 0,0 km/h (0 Bft) SW 225 11,0 C 12,4 C
17.08.2012 02:51 12,4 C 91 % 1021,4 hPa 0,0 l/m 0,0 km/h (0 Bft) SW 225 11,0 C 12,4 C
17.08.2012 02:56 12,5 C 91 % 1021,5 hPa 0,0 l/m 0,0 km/h (0 Bft) SW 225 11,1 C 12,5 C
17.08.2012 03:01 12,6 C 91 % 1021,4 hPa 0,5 l/m 0,0 km/h (0 Bft) SW 225 11,2 C 12,6 C
17.08.2012 03:06 12,6 C 91 % 1021,4 hPa 0,0 l/m 0,0 km/h (0 Bft) SW 225 11,2 C 12,6 C
17.08.2012 03:11 12,6 C 91 % 1021,4 hPa 0,0 l/m 0,0 km/h (0 Bft) SW 225 11,2 C 12,6 C
17.08.2012 03:16 12,6 C 91 % 1021,5 hPa 0,0 l/m 0,0 km/h (0 Bft) SW 225 11,2 C 12,6 C
17.08.2012 03:21 12,6 C 91 % 1021,5 hPa 0,0 l/m 0,0 km/h (0 Bft) SW 225 11,2 C 12,6 C
17.08.2012 03:26 12,5 C 91 % 1021,5 hPa 0,0 l/m 0,0 km/h (0 Bft) SW 225 11,1 C 12,5 C
17.08.2012 03:31 12,5 C 91 % 1021,6 hPa 0,0 l/m 0,0 km/h (0 Bft) SW 225 11,1 C 12,5 C
17.08.2012 03:36 12,5 C 91 % 1021,7 hPa 0,0 l/m 0,0 km/h (0 Bft) SW 225 11,1 C 12,5 C
17.08.2012 03:41 12,5 C 91 % 1021,5 hPa 0,0 l/m 0,0 km/h (0 Bft) SW 225 11,1 C 12,5 C
17.08.2012 03:46 12,5 C 91 % 1021,5 hPa 0,0 l/m 0,0 km/h (0 Bft) SW 225 11,1 C 12,5 C
17.08.2012 03:51 12,5 C 91 % 1021,5 hPa 0,0 l/m 0,0 km/h (0 Bft) SW 225 11,1 C 12,5 C
17.08.2012 03:56 12,5 C 91 % 1021,5 hPa 0,0 l/m 0,0 km/h (0 Bft) SW 225 11,1 C 12,5 C
17.08.2012 04:01 12,5 C 91 % 1021,6 hPa 0,0 l/m 0,0 km/h (0 Bft) SW 225 11,1 C 12,5 C
17.08.2012 04:06 12,5 C 91 % 1021,6 hPa 0,0 l/m 0,0 km/h (0 Bft) SW 225 11,1 C 12,5 C
17.08.2012 04:11 12,5 C 91 % 1021,6 hPa 0,0 l/m 0,0 km/h (0 Bft) SW 225 11,1 C 12,5 C
17.08.2012 04:16 12,6 C 91 % 1021,6 hPa 0,0 l/m 0,0 km/h (0 Bft) SW 225 11,2 C 12,6 C
17.08.2012 04:21 12,5 C 91 % 1021,6 hPa 0,0 l/m 0,0 km/h (0 Bft) SW 225 11,1 C 12,5 C
17.08.2012 04:26 12,5 C 91 % 1021,6 hPa 0,0 l/m 0,0 km/h (0 Bft) SW 225 11,1 C 12,5 C
17.08.2012 04:31 12,5 C 91 % 1021,6 hPa 0,0 l/m 0,0 km/h (0 Bft) SW 225 11,1 C 12,5 C
17.08.2012 04:36 12,5 C 91 % 1021,8 hPa 0,0 l/m 0,0 km/h (0 Bft) SW 225 11,1 C 12,5 C
17.08.2012 04:41 12,6 C 91 % 1021,8 hPa 0,0 l/m 0,0 km/h (0 Bft) SW 225 11,2 C 12,6 C
17.08.2012 04:46 12,5 C 91 % 1021,7 hPa 0,0 l/m 0,0 km/h (0 Bft) SW 225 11,1 C 12,5 C
17.08.2012 04:51 12,4 C 91 % 1021,8 hPa 0,0 l/m 0,0 km/h (0 Bft) SW 225 11,0 C 12,4 C
17.08.2012 04:56 12,4 C 91 % 1021,9 hPa 0,0 l/m 0,0 km/h (0 Bft) SW 225 11,0 C 12,4 C
17.08.2012 05:01 12,5 C 91 % 1021,9 hPa 0,0 l/m 0,0 km/h (0 Bft) SW 225 11,1 C 12,5 C
17.08.2012 05:06 12,5 C 91 % 1021,8 hPa 0,0 l/m 0,0 km/h (0 Bft) SW 225 11,1 C 12,5 C
17.08.2012 05:11 12,5 C 91 % 1021,6 hPa 0,0 l/m 0,0 km/h (0 Bft) SW 225 11,1 C 12,5 C
17.08.2012 05:16 12,5 C 91 % 1021,4 hPa 0,0 l/m 0,0 km/h (0 Bft) SW 225 11,1 C 12,5 C
17.08.2012 05:21 12,5 C 91 % 1021,5 hPa 0,0 l/m 0,0 km/h (0 Bft) SW 225 11,1 C 12,5 C
17.08.2012 05:26 12,5 C 91 % 1021,6 hPa 0,0 l/m 0,0 km/h (0 Bft) SW 225 11,1 C 12,5 C
17.08.2012 05:31 12,4 C 91 % 1021,6 hPa 0,0 l/m 0,0 km/h (0 Bft) SW 225 11,0 C 12,4 C
17.08.2012 05:36 12,4 C 91 % 1021,5 hPa 0,0 l/m 0,0 km/h (0 Bft) SW 225 11,0 C 12,4 C
17.08.2012 05:41 12,4 C 91 % 1021,6 hPa 0,0 l/m 0,0 km/h (0 Bft) SW 225 11,0 C 12,4 C
17.08.2012 05:46 12,3 C 91 % 1021,6 hPa 0,0 l/m 0,0 km/h (0 Bft) SW 225 10,9 C 12,3 C
17.08.2012 05:51 12,3 C 91 % 1021,7 hPa 0,0 l/m 0,0 km/h (0 Bft) SW 225 10,9 C 12,3 C
17.08.2012 05:56 12,2 C 91 % 1021,8 hPa 0,0 l/m 0,0 km/h (0 Bft) SW 225 10,8 C 12,2 C
17.08.2012 06:01 12,2 C 91 % 1021,9 hPa 0,0 l/m 0,0 km/h (0 Bft) SW 225 10,8 C 12,2 C
17.08.2012 06:06 12,2 C 92 % 1022,0 hPa 0,0 l/m 0,0 km/h (0 Bft) SW 225 10,9 C 12,2 C
17.08.2012 06:11 12,1 C 92 % 1022,0 hPa 0,0 l/m 0,0 km/h (0 Bft) SW 225 10,8 C 12,1 C
17.08.2012 06:16 12,1 C 92 % 1022,1 hPa 0,0 l/m 0,0 km/h (0 Bft) SW 225 10,8 C 12,1 C
17.08.2012 06:21 12,1 C 92 % 1022,1 hPa 0,0 l/m 0,0 km/h (0 Bft) SW 225 10,8 C 12,1 C
17.08.2012 06:26 12,1 C 92 % 1022,1 hPa 0,0 l/m 0,0 km/h (0 Bft) SW 225 10,8 C 12,1 C
17.08.2012 06:31 12,3 C 92 % 1022,0 hPa 0,0 l/m 0,0 km/h (0 Bft) SW 225 11,0 C 12,3 C
17.08.2012 06:36 12,3 C 92 % 1022,0 hPa 0,0 l/m 0,0 km/h (0 Bft) SW 225 11,0 C 12,3 C
17.08.2012 06:41 12,4 C 92 % 1021,9 hPa 0,0 l/m 0,0 km/h (0 Bft) SW 225 11,1 C 12,4 C
17.08.2012 06:46 12,5 C 92 % 1022,0 hPa 0,0 l/m 0,0 km/h (0 Bft) SW 225 11,2 C 12,5 C
17.08.2012 06:51 12,6 C 92 % 1021,9 hPa 0,0 l/m 0,0 km/h (0 Bft) SW 225 11,3 C 12,6 C
17.08.2012 06:56 12,6 C 92 % 1021,9 hPa 0,0 l/m 0,0 km/h (0 Bft) SW 225 11,3 C 12,6 C
17.08.2012 07:01 12,7 C 92 % 1021,9 hPa 0,0 l/m 0,0 km/h (0 Bft) S-SO 157 11,4 C 12,7 C
17.08.2012 07:06 12,7 C 92 % 1021,9 hPa 0,0 l/m 0,0 km/h (0 Bft) SO 135 11,4 C 12,7 C
17.08.2012 07:11 12,8 C 92 % 1022,0 hPa 0,0 l/m 0,0 km/h (0 Bft) SO 135 11,5 C 12,8 C
17.08.2012 07:16 12,9 C 92 % 1022,0 hPa 0,0 l/m 0,0 km/h (0 Bft) SO 135 11,6 C 12,9 C
17.08.2012 07:21 13,1 C 92 % 1021,8 hPa 0,0 l/m 0,0 km/h (0 Bft) SO 135 11,8 C 13,1 C
17.08.2012 07:26 13,2 C 91 % 1022,0 hPa 0,0 l/m 0,0 km/h (0 Bft) SO 135 11,8 C 13,2 C
17.08.2012 07:31 13,2 C 91 % 1022,1 hPa 0,0 l/m 0,0 km/h (0 Bft) SO 135 11,8 C 13,2 C
17.08.2012 07:36 13,3 C 91 % 1022,0 hPa 0,0 l/m 0,0 km/h (0 Bft) SO 135 11,9 C 13,3 C
17.08.2012 07:41 13,3 C 91 % 1021,9 hPa 0,0 l/m 0,0 km/h (0 Bft) SO 135 11,9 C 13,3 C
17.08.2012 07:46 13,5 C 91 % 1022,0 hPa 0,0 l/m 0,0 km/h (0 Bft) SO 135 12,1 C 13,5 C
17.08.2012 07:51 13,6 C 91 % 1022,0 hPa 0,0 l/m 0,0 km/h (0 Bft) SO 135 12,2 C 13,6 C
17.08.2012 07:56 14,1 C 91 % 1022,0 hPa 0,0 l/m 0,0 km/h (0 Bft) SO 135 12,7 C 14,1 C
17.08.2012 08:01 14,3 C 90 % 1022,2 hPa 0,0 l/m 0,0 km/h (0 Bft) SO 135 12,7 C 14,3 C
17.08.2012 08:06 14,6 C 89 % 1022,2 hPa 0,0 l/m 0,0 km/h (0 Bft) SO 135 12,8 C 14,6 C
17.08.2012 08:11 14,9 C 90 % 1022,1 hPa 0,0 l/m 0,0 km/h (0 Bft) SO 135 13,3 C 14,9 C
17.08.2012 08:16 15,3 C 89 % 1022,2 hPa 0,0 l/m 0,0 km/h (0 Bft) SO 135 13,5 C 15,3 C
17.08.2012 08:21 15,6 C 89 % 1022,3 hPa 0,0 l/m 0,0 km/h (0 Bft) SO 135 13,8 C 15,6 C
17.08.2012 08:26 16,0 C 88 % 1022,3 hPa 0,0 l/m 0,0 km/h (0 Bft) SO 135 14,0 C 16,0 C
17.08.2012 08:31 16,4 C 88 % 1022,3 hPa 0,0 l/m 0,0 km/h (0 Bft) SO 135 14,4 C 16,4 C
17.08.2012 08:36 16,8 C 88 % 1022,4 hPa 0,0 l/m 0,0 km/h (0 Bft) SO 135 14,8 C 16,8 C
17.08.2012 08:41 17,1 C 87 % 1022,4 hPa 0,0 l/m 0,0 km/h (0 Bft) SO 135 14,9 C 17,1 C
17.08.2012 08:46 17,1 C 86 % 1022,5 hPa 0,0 l/m 0,0 km/h (0 Bft) SO 135 14,7 C 17,1 C
17.08.2012 08:51 17,2 C 87 % 1022,4 hPa 0,0 l/m 0,0 km/h (0 Bft) SO 135 15,0 C 17,2 C
17.08.2012 08:56 17,4 C 87 % 1022,4 hPa 0,0 l/m 0,0 km/h (0 Bft) SO 135 15,2 C 17,4 C
17.08.2012 09:01 17,6 C 86 % 1022,5 hPa 0,0 l/m 0,0 km/h (0 Bft) SO 135 15,2 C 17,6 C
17.08.2012 09:06 17,8 C 86 % 1022,5 hPa 0,0 l/m 0,0 km/h (0 Bft) SO 135 15,4 C 17,8 C
17.08.2012 09:11 17,9 C 86 % 1022,5 hPa 0,0 l/m 0,0 km/h (0 Bft) SO 135 15,5 C 17,9 C
17.08.2012 09:16 18,1 C 85 % 1022,4 hPa 0,0 l/m 0,0 km/h (0 Bft) SO 135 15,5 C 18,1 C
17.08.2012 09:21 18,2 C 85 % 1022,5 hPa 0,0 l/m 0,0 km/h (0 Bft) SO 135 15,6 C 18,2 C
17.08.2012 09:26 18,3 C 84 % 1022,6 hPa 0,0 l/m 0,0 km/h (0 Bft) O-SO 112 15,5 C 18,3 C
17.08.2012 09:31 18,4 C 84 % 1022,5 hPa 0,0 l/m 0,0 km/h (0 Bft) O-SO 112 15,6 C 18,4 C
17.08.2012 09:36 18,7 C 82 % 1022,6 hPa 0,0 l/m 0,0 km/h (0 Bft) O-SO 112 15,6 C 18,7 C
17.08.2012 09:41 19,0 C 82 % 1022,6 hPa 0,0 l/m 0,0 km/h (0 Bft) SO 135 15,9 C 19,0 C
17.08.2012 09:46 19,3 C 80 % 1022,5 hPa 0,0 l/m 0,0 km/h (0 Bft) O-SO 112 15,8 C 19,3 C
17.08.2012 09:51 19,4 C 80 % 1022,6 hPa 0,0 l/m 0,0 km/h (0 Bft) SO 135 15,9 C 19,4 C
17.08.2012 09:56 19,6 C 80 % 1022,6 hPa 0,0 l/m 0,0 km/h (0 Bft) O-SO 112 16,1 C 19,6 C
17.08.2012 10:01 19,8 C 79 % 1022,6 hPa 0,0 l/m 0,0 km/h (0 Bft) SO 135 16,0 C 19,8 C
17.08.2012 10:06 19,9 C 77 % 1022,7 hPa 0,0 l/m 0,0 km/h (0 Bft) O-SO 112 15,7 C 19,9 C
17.08.2012 10:11 20,1 C 77 % 1022,7 hPa 0,0 l/m 0,0 km/h (0 Bft) O-SO 112 15,9 C 20,1 C
17.08.2012 10:16 20,3 C 76 % 1022,7 hPa 0,0 l/m 0,0 km/h (0 Bft) SO 135 15,9 C 20,3 C
17.08.2012 10:21 20,5 C 75 % 1022,7 hPa 0,0 l/m 0,0 km/h (0 Bft) SO 135 15,9 C 20,5 C
17.08.2012 10:26 20,8 C 73 % 1022,7 hPa 0,0 l/m 0,0 km/h (0 Bft) O-SO 112 15,8 C 20,8 C
17.08.2012 10:31 21,1 C 72 % 1022,9 hPa 0,0 l/m 0,0 km/h (0 Bft) O-SO 112 15,8 C 21,1 C
17.08.2012 10:36 21,3 C 70 % 1022,8 hPa 0,0 l/m 0,0 km/h (0 Bft) O 90 15,6 C 21,3 C
17.08.2012 10:41 21,6 C 69 % 1022,9 hPa 0,0 l/m 0,0 km/h (0 Bft) SO 135 15,7 C 21,6 C
17.08.2012 10:46 21,8 C 69 % 1022,9 hPa 0,0 l/m 0,0 km/h (0 Bft) O-SO 112 15,9 C 21,8 C
17.08.2012 10:51 22,1 C 68 % 1022,9 hPa 0,0 l/m 0,0 km/h (0 Bft) SO 135 15,9 C 22,1 C
17.08.2012 10:56 22,2 C 68 % 1023,1 hPa 0,0 l/m 0,0 km/h (0 Bft) W-SW 247 16,0 C 22,2 C
17.08.2012 11:01 22,3 C 67 % 1023,0 hPa 0,0 l/m 0,0 km/h (0 Bft) SW 225 15,9 C 22,3 C
17.08.2012 11:06 22,4 C 67 % 1023,0 hPa 0,0 l/m 0,0 km/h (0 Bft) SW 225 16,0 C 22,4 C
17.08.2012 11:11 22,4 C 67 % 1022,9 hPa 0,0 l/m 0,0 km/h (0 Bft) S-SW 202 16,0 C 22,4 C
17.08.2012 11:16 22,4 C 66 % 1023,0 hPa 0,0 l/m 0,0 km/h (0 Bft) W-SW 247 15,7 C 22,4 C
17.08.2012 11:21 22,5 C 66 % 1023,0 hPa 0,0 l/m 0,0 km/h (0 Bft) W 270 15,8 C 22,5 C
17.08.2012 11:26 22,7 C 65 % 1022,9 hPa 0,0 l/m 0,0 km/h (0 Bft) W-SW 247 15,8 C 22,7 C
17.08.2012 11:31 22,8 C 64 % 1023,0 hPa 0,0 l/m 0,0 km/h (0 Bft) W-SW 247 15,6 C 22,8 C
17.08.2012 11:36 22,9 C 63 % 1022,9 hPa 0,0 l/m 0,0 km/h (0 Bft) S-SO 157 15,5 C 22,9 C
17.08.2012 11:41 23,0 C 63 % 1022,9 hPa 0,0 l/m 0,0 km/h (0 Bft) S-SW 202 15,6 C 23,0 C
17.08.2012 11:46 23,2 C 62 % 1022,8 hPa 0,0 l/m 0,0 km/h (0 Bft) S 180 15,5 C 23,2 C
17.08.2012 11:51 23,4 C 62 % 1022,9 hPa 0,0 l/m 0,0 km/h (0 Bft) S-SW 202 15,7 C 23,4 C
17.08.2012 11:56 23,6 C 61 % 1022,7 hPa 0,0 l/m 0,0 km/h (0 Bft) SO 135 15,6 C 23,6 C
17.08.2012 12:01 23,6 C 61 % 1022,8 hPa 0,0 l/m 0,0 km/h (0 Bft) SO 135 15,6 C 23,6 C
17.08.2012 12:06 23,7 C 60 % 1022,8 hPa 0,0 l/m 0,0 km/h (0 Bft) W 270 15,5 C 23,7 C
17.08.2012 12:11 23,9 C 60 % 1022,6 hPa 0,0 l/m 0,0 km/h (0 Bft) W 270 15,7 C 23,9 C
17.08.2012 12:16 24,1 C 60 % 1022,7 hPa 0,0 l/m 0,0 km/h (0 Bft) W-SW 247 15,8 C 24,1 C
17.08.2012 12:21 24,2 C 59 % 1022,7 hPa 0,0 l/m 0,0 km/h (0 Bft) SW 225 15,7 C 24,2 C
17.08.2012 12:26 24,3 C 59 % 1022,6 hPa 0,0 l/m 0,0 km/h (0 Bft) SO 135 15,8 C 24,3 C
17.08.2012 12:31 24,3 C 58 % 1022,6 hPa 0,0 l/m 0,0 km/h (0 Bft) W 270 15,5 C 24,3 C
17.08.2012 12:36 24,4 C 59 % 1022,6 hPa 0,0 l/m 0,0 km/h (0 Bft) S-SW 202 15,9 C 24,4 C
17.08.2012 12:41 24,6 C 58 % 1022,5 hPa 0,0 l/m 0,0 km/h (0 Bft) S-SW 202 15,8 C 24,6 C
17.08.2012 12:46 24,8 C 58 % 1022,6 hPa 0,0 l/m 0,0 km/h (0 Bft) NW 315 16,0 C 24,8 C
17.08.2012 12:51 24,6 C 57 % 1022,6 hPa 0,0 l/m 0,0 km/h (0 Bft) W 270 15,5 C 24,6 C
17.08.2012 12:56 24,5 C 58 % 1022,6 hPa 0,0 l/m 0,0 km/h (0 Bft) SW 225 15,7 C 24,5 C
17.08.2012 13:01 24,6 C 58 % 1022,5 hPa 0,0 l/m 0,0 km/h (0 Bft) S 180 15,8 C 24,6 C
17.08.2012 13:06 24,8 C 57 % 1022,6 hPa 0,0 l/m 1,4 km/h (1 Bft) W 270 15,7 C 24,8 C
17.08.2012 13:11 24,9 C 56 % 1022,6 hPa 0,0 l/m 2,5 km/h (1 Bft) W 270 15,5 C 24,9 C
17.08.2012 13:16 25,0 C 56 % 1022,6 hPa 0,0 l/m 2,5 km/h (1 Bft) S 180 15,6 C 25,0 C
17.08.2012 13:21 25,2 C 56 % 1022,5 hPa 0,0 l/m 3,6 km/h (1 Bft) NW 315 15,8 C 25,2 C
17.08.2012 13:26 25,2 C 54 % 1022,5 hPa 0,0 l/m 0,0 km/h (0 Bft) N-NO 22 15,2 C 25,2 C
17.08.2012 13:31 25,1 C 54 % 1022,5 hPa 0,0 l/m 0,0 km/h (0 Bft) W-SW 247 15,1 C 25,1 C
17.08.2012 13:36 25,1 C 55 % 1022,6 hPa 0,0 l/m 0,0 km/h (0 Bft) SW 225 15,4 C 25,1 C
17.08.2012 13:41 25,3 C 54 % 1022,5 hPa 0,0 l/m 2,9 km/h (1 Bft) W-SW 247 15,3 C 25,3 C
17.08.2012 13:46 25,4 C 54 % 1022,4 hPa 0,0 l/m 2,5 km/h (1 Bft) NW 315 15,4 C 25,4 C
17.08.2012 13:51 25,5 C 54 % 1022,5 hPa 0,0 l/m 4,3 km/h (1 Bft) SW 225 15,5 C 25,5 C
17.08.2012 13:56 25,6 C 53 % 1022,4 hPa 0,0 l/m 2,9 km/h (1 Bft) SO 135 15,3 C 25,6 C
17.08.2012 14:01 25,4 C 53 % 1022,4 hPa 0,0 l/m 0,0 km/h (0 Bft) W 270 15,1 C 25,4 C
17.08.2012 14:06 25,4 C 53 % 1022,5 hPa 0,0 l/m 2,5 km/h (1 Bft) NW 315 15,1 C 25,4 C
17.08.2012 14:11 25,5 C 53 % 1022,4 hPa 0,0 l/m 0,0 km/h (0 Bft) W-NW 292 15,2 C 25,5 C
17.08.2012 14:16 25,6 C 52 % 1022,3 hPa 0,0 l/m 0,0 km/h (0 Bft) W-SW 247 15,0 C 25,6 C
17.08.2012 14:21 25,6 C 52 % 1022,3 hPa 0,0 l/m 4,3 km/h (1 Bft) W-NW 292 15,0 C 25,6 C
17.08.2012 14:26 25,7 C 52 % 1022,2 hPa 0,0 l/m 3,2 km/h (1 Bft) NW 315 15,1 C 25,7 C
17.08.2012 14:31 25,6 C 51 % 1022,3 hPa 0,0 l/m 3,2 km/h (1 Bft) N-NW 337 14,7 C 25,6 C
17.08.2012 14:36 25,5 C 52 % 1022,4 hPa 0,0 l/m 0,0 km/h (0 Bft) S-SW 202 14,9 C 25,5 C
17.08.2012 14:41 25,6 C 52 % 1022,3 hPa 0,0 l/m 0,0 km/h (0 Bft) W 270 15,0 C 25,6 C
17.08.2012 14:46 25,6 C 52 % 1022,2 hPa 0,0 l/m 2,2 km/h (1 Bft) W 270 15,0 C 25,6 C
17.08.2012 14:51 25,5 C 49 % 1022,2 hPa 0,0 l/m 3,6 km/h (1 Bft) N-NO 22 14,0 C 25,5 C
17.08.2012 14:56 25,1 C 51 % 1022,3 hPa 0,0 l/m 0,0 km/h (0 Bft) NO 45 14,2 C 25,1 C
17.08.2012 15:01 25,3 C 52 % 1022,2 hPa 0,0 l/m 0,0 km/h (0 Bft) O-SO 112 14,7 C 25,3 C
17.08.2012 15:06 25,7 C 52 % 1022,2 hPa 0,0 l/m 2,9 km/h (1 Bft) S-SW 202 15,1 C 25,7 C
17.08.2012 15:11 25,9 C 51 % 1022,2 hPa 0,0 l/m 2,9 km/h (1 Bft) S-SO 157 15,0 C 25,9 C
17.08.2012 15:16 26,0 C 51 % 1022,1 hPa 0,0 l/m 2,2 km/h (1 Bft) S-SW 202 15,1 C 26,0 C
17.08.2012 15:21 26,2 C 50 % 1022,1 hPa 0,0 l/m 3,2 km/h (1 Bft) SW 225 14,9 C 26,2 C
17.08.2012 15:26 26,4 C 49 % 1022,1 hPa 0,0 l/m 2,2 km/h (1 Bft) SO 135 14,8 C 26,4 C
17.08.2012 15:31 26,6 C 49 % 1022,0 hPa 0,0 l/m 0,0 km/h (0 Bft) W-SW 247 15,0 C 26,6 C
17.08.2012 15:36 26,8 C 48 % 1022,1 hPa 0,0 l/m 4,7 km/h (1 Bft) W-SW 247 14,9 C 26,8 C
17.08.2012 15:41 26,7 C 48 % 1021,9 hPa 0,0 l/m 2,9 km/h (1 Bft) W-SW 247 14,8 C 26,7 C
17.08.2012 15:46 26,8 C 48 % 1021,9 hPa 0,0 l/m 3,2 km/h (1 Bft) W 270 14,9 C 26,8 C
17.08.2012 15:51 26,9 C 47 % 1021,9 hPa 0,0 l/m 0,0 km/h (0 Bft) N 360 14,6 C 26,9 C
17.08.2012 15:56 27,1 C 47 % 1022,1 hPa 0,0 l/m 4,7 km/h (1 Bft) S 180 14,8 C 27,1 C
17.08.2012 16:01 27,1 C 47 % 1022,0 hPa 0,0 l/m 0,0 km/h (0 Bft) S-SW 202 14,8 C 27,1 C
17.08.2012 16:06 27,2 C 47 % 1021,9 hPa 0,0 l/m 5,8 km/h (2 Bft) W-SW 247 14,9 C 27,2 C
17.08.2012 16:11 27,3 C 46 % 1022,1 hPa 0,0 l/m 2,2 km/h (1 Bft) SO 135 14,6 C 27,3 C
17.08.2012 16:16 27,3 C 46 % 1021,9 hPa 0,0 l/m 0,0 km/h (0 Bft) S-SO 157 14,6 C 27,3 C
17.08.2012 16:21 27,4 C 46 % 1021,9 hPa 0,0 l/m 5,8 km/h (2 Bft) SW 225 14,7 C 27,4 C
17.08.2012 16:26 27,4 C 46 % 1021,9 hPa 0,0 l/m 5,0 km/h (1 Bft) SW 225 14,7 C 27,4 C
17.08.2012 16:31 27,4 C 46 % 1021,8 hPa 0,0 l/m 9,7 km/h (2 Bft) W-SW 247 14,7 C 27,4 C
17.08.2012 16:36 27,3 C 45 % 1021,8 hPa 0,0 l/m 6,5 km/h (2 Bft) W 270 14,3 C 27,3 C
17.08.2012 16:41 27,4 C 45 % 1021,8 hPa 0,0 l/m 0,0 km/h (0 Bft) W-NW 292 14,4 C 27,4 C
17.08.2012 16:46 27,3 C 45 % 1021,7 hPa 0,0 l/m 1,8 km/h (1 Bft) SW 225 14,3 C 27,3 C
17.08.2012 16:51 27,4 C 44 % 1021,8 hPa 0,0 l/m 3,2 km/h (1 Bft) W-SW 247 14,0 C 27,4 C
17.08.2012 16:56 27,3 C 42 % 1021,8 hPa 0,0 l/m 4,0 km/h (1 Bft) N 360 13,2 C 27,3 C
17.08.2012 17:01 26,9 C 43 % 1021,8 hPa 0,0 l/m 4,7 km/h (1 Bft) N 360 13,2 C 26,9 C
17.08.2012 17:06 26,8 C 43 % 1021,8 hPa 0,0 l/m 0,0 km/h (0 Bft) N-NO 22 13,2 C 26,8 C
17.08.2012 17:11 26,4 C 43 % 1021,7 hPa 0,0 l/m 2,2 km/h (1 Bft) NW 315 12,8 C 26,4 C
17.08.2012 17:16 26,5 C 46 % 1021,6 hPa 0,0 l/m 0,0 km/h (0 Bft) W-SW 247 13,9 C 26,5 C
17.08.2012 17:21 26,9 C 45 % 1021,6 hPa 0,0 l/m 0,0 km/h (0 Bft) N 360 13,9 C 26,9 C
17.08.2012 17:26 27,1 C 43 % 1021,5 hPa 0,0 l/m 3,2 km/h (1 Bft) W 270 13,4 C 27,1 C
17.08.2012 17:31 27,2 C 43 % 1021,5 hPa 0,0 l/m 1,4 km/h (1 Bft) W-NW 292 13,5 C 27,2 C
17.08.2012 17:36 27,1 C 43 % 1021,5 hPa 0,0 l/m 1,4 km/h (1 Bft) W 270 13,4 C 27,1 C
17.08.2012 17:41 27,1 C 43 % 1021,5 hPa 0,0 l/m 4,7 km/h (1 Bft) S-SO 157 13,4 C 27,1 C
17.08.2012 17:46 27,0 C 43 % 1021,5 hPa 0,0 l/m 0,0 km/h (0 Bft) S 180 13,3 C 27,0 C
17.08.2012 17:51 27,1 C 42 % 1021,5 hPa 0,0 l/m 3,2 km/h (1 Bft) O-NO 67 13,1 C 27,1 C
17.08.2012 17:56 26,9 C 43 % 1021,5 hPa 0,0 l/m 0,0 km/h (0 Bft) SW 225 13,2 C 26,9 C
17.08.2012 18:01 26,9 C 43 % 1021,5 hPa 0,0 l/m 3,2 km/h (1 Bft) S 180 13,2 C 26,9 C
17.08.2012 18:06 27,0 C 43 % 1021,4 hPa 0,0 l/m 3,2 km/h (1 Bft) SO 135 13,3 C 27,0 C
17.08.2012 18:11 27,1 C 42 % 1021,5 hPa 0,0 l/m 3,6 km/h (1 Bft) O-SO 112 13,1 C 27,1 C
17.08.2012 18:16 26,7 C 42 % 1021,4 hPa 0,0 l/m 0,0 km/h (0 Bft) SO 135 12,7 C 26,7 C
17.08.2012 18:21 26,6 C 43 % 1021,4 hPa 0,0 l/m 0,0 km/h (0 Bft) SO 135 13,0 C 26,6 C
17.08.2012 18:26 26,6 C 43 % 1021,3 hPa 0,0 l/m 0,0 km/h (0 Bft) SO 135 13,0 C 26,6 C
17.08.2012 18:31 26,4 C 43 % 1021,4 hPa 0,0 l/m 5,4 km/h (1 Bft) S-SO 157 12,8 C 26,4 C
17.08.2012 18:36 26,4 C 43 % 1021,4 hPa 0,0 l/m 2,9 km/h (1 Bft) SO 135 12,8 C 26,4 C
17.08.2012 18:41 26,3 C 43 % 1021,5 hPa 0,0 l/m 1,4 km/h (1 Bft) SO 135 12,7 C 26,3 C
17.08.2012 18:46 26,2 C 44 % 1021,5 hPa 0,0 l/m 1,4 km/h (1 Bft) SO 135 13,0 C 26,2 C
17.08.2012 18:51 25,9 C 44 % 1021,5 hPa 0,0 l/m 3,2 km/h (1 Bft) SO 135 12,7 C 25,9 C
17.08.2012 18:56 25,6 C 45 % 1021,5 hPa 0,0 l/m 0,0 km/h (0 Bft) SO 135 12,8 C 25,6 C
17.08.2012 19:01 25,5 C 45 % 1021,4 hPa 0,0 l/m 0,0 km/h (0 Bft) SO 135 12,7 C 25,5 C
17.08.2012 19:06 25,3 C 46 % 1021,4 hPa 0,0 l/m 2,5 km/h (1 Bft) SO 135 12,8 C 25,3 C
17.08.2012 19:11 25,2 C 46 % 1021,4 hPa 0,0 l/m 1,8 km/h (1 Bft) O-SO 112 12,7 C 25,2 C
17.08.2012 19:16 24,9 C 47 % 1021,4 hPa 0,0 l/m 1,8 km/h (1 Bft) O-SO 112 12,8 C 24,9 C
17.08.2012 19:21 24,8 C 49 % 1021,4 hPa 0,0 l/m 5,0 km/h (1 Bft) O-SO 112 13,3 C 24,8 C
17.08.2012 19:26 24,6 C 49 % 1021,5 hPa 0,0 l/m 2,5 km/h (1 Bft) O-SO 112 13,2 C 24,6 C
17.08.2012 19:31 24,4 C 50 % 1021,5 hPa 0,0 l/m 0,0 km/h (0 Bft) SO 135 13,3 C 24,4 C
17.08.2012 19:36 24,3 C 51 % 1021,6 hPa 0,0 l/m 3,6 km/h (1 Bft) SO 135 13,5 C 24,3 C
17.08.2012 19:41 24,1 C 51 % 1021,6 hPa 0,0 l/m 2,9 km/h (1 Bft) S-SO 157 13,3 C 24,1 C
17.08.2012 19:46 23,9 C 52 % 1021,6 hPa 0,0 l/m 3,2 km/h (1 Bft) S-SO 157 13,4 C 23,9 C
17.08.2012 19:51 23,8 C 53 % 1021,7 hPa 0,0 l/m 2,2 km/h (1 Bft) SO 135 13,6 C 23,8 C
17.08.2012 19:56 23,6 C 53 % 1021,6 hPa 0,0 l/m 2,5 km/h (1 Bft) SO 135 13,4 C 23,6 C
17.08.2012 20:01 23,4 C 54 % 1021,6 hPa 0,0 l/m 2,9 km/h (1 Bft) SO 135 13,6 C 23,4 C
17.08.2012 20:06 23,3 C 54 % 1021,6 hPa 0,0 l/m 2,2 km/h (1 Bft) S-SO 157 13,5 C 23,3 C
17.08.2012 20:11 23,0 C 55 % 1021,7 hPa 0,0 l/m 1,8 km/h (1 Bft) SO 135 13,5 C 23,0 C
17.08.2012 20:16 22,8 C 56 % 1021,7 hPa 0,0 l/m 2,5 km/h (1 Bft) SO 135 13,6 C 22,8 C
17.08.2012 20:21 22,6 C 57 % 1021,6 hPa 0,0 l/m 1,4 km/h (1 Bft) SO 135 13,6 C 22,6 C
17.08.2012 20:26 22,4 C 58 % 1021,6 hPa 0,0 l/m 0,0 km/h (0 Bft) SO 135 13,7 C 22,4 C
17.08.2012 20:31 22,1 C 59 % 1021,8 hPa 0,0 l/m 0,0 km/h (0 Bft) SO 135 13,7 C 22,1 C
17.08.2012 20:36 21,9 C 60 % 1021,6 hPa 0,0 l/m 1,4 km/h (1 Bft) S-SO 157 13,8 C 21,9 C
17.08.2012 20:41 21,7 C 60 % 1021,6 hPa 0,0 l/m 0,0 km/h (0 Bft) SO 135 13,6 C 21,7 C
17.08.2012 20:46 21,5 C 61 % 1021,7 hPa 0,0 l/m 1,4 km/h (1 Bft) O-SO 112 13,7 C 21,5 C
17.08.2012 20:51 21,3 C 62 % 1021,6 hPa 0,0 l/m 0,0 km/h (0 Bft) O-SO 112 13,7 C 21,3 C
17.08.2012 20:56 21,1 C 62 % 1021,6 hPa 0,0 l/m 1,8 km/h (1 Bft) SO 135 13,5 C 21,1 C
17.08.2012 21:01 20,9 C 63 % 1021,8 hPa 0,0 l/m 0,0 km/h (0 Bft) SO 135 13,6 C 20,9 C
17.08.2012 21:06 20,8 C 63 % 1021,8 hPa 0,0 l/m 2,5 km/h (1 Bft) SO 135 13,5 C 20,8 C
17.08.2012 21:11 20,7 C 64 % 1021,9 hPa 0,0 l/m 1,1 km/h (1 Bft) SO 135 13,6 C 20,7 C
17.08.2012 21:16 20,6 C 64 % 1021,9 hPa 0,0 l/m 2,2 km/h (1 Bft) SO 135 13,5 C 20,6 C
17.08.2012 21:21 20,4 C 64 % 1021,8 hPa 0,0 l/m 0,0 km/h (0 Bft) SO 135 13,4 C 20,4 C
17.08.2012 21:26 20,3 C 64 % 1021,9 hPa 0,0 l/m 2,5 km/h (1 Bft) O-SO 112 13,3 C 20,3 C
17.08.2012 21:31 20,2 C 65 % 1022,0 hPa 0,0 l/m 0,0 km/h (0 Bft) SO 135 13,4 C 20,2 C
17.08.2012 21:36 20,1 C 65 % 1022,0 hPa 0,0 l/m 0,0 km/h (0 Bft) SO 135 13,3 C 20,1 C
17.08.2012 21:41 19,9 C 66 % 1022,0 hPa 0,0 l/m 0,0 km/h (0 Bft) SO 135 13,4 C 19,9 C
17.08.2012 21:46 19,8 C 66 % 1021,9 hPa 0,0 l/m 0,0 km/h (0 Bft) SO 135 13,3 C 19,8 C
17.08.2012 21:51 19,6 C 67 % 1022,1 hPa 0,0 l/m 0,0 km/h (0 Bft) SO 135 13,3 C 19,6 C
17.08.2012 21:56 19,5 C 67 % 1022,0 hPa 0,0 l/m 0,0 km/h (0 Bft) O-SO 112 13,2 C 19,5 C
17.08.2012 22:01 19,4 C 67 % 1022,0 hPa 0,0 l/m 0,0 km/h (0 Bft) SO 135 13,1 C 19,4 C
17.08.2012 22:06 19,4 C 68 % 1022,0 hPa 0,0 l/m 0,0 km/h (0 Bft) O-SO 112 13,3 C 19,4 C
17.08.2012 22:11 19,3 C 68 % 1022,0 hPa 0,0 l/m 0,0 km/h (0 Bft) S-SO 157 13,2 C 19,3 C
17.08.2012 22:16 19,3 C 68 % 1022,0 hPa 0,0 l/m 0,0 km/h (0 Bft) SO 135 13,2 C 19,3 C
17.08.2012 22:21 19,2 C 68 % 1022,1 hPa 0,0 l/m 0,0 km/h (0 Bft) SO 135 13,1 C 19,2 C
17.08.2012 22:26 19,1 C 68 % 1022,1 hPa 0,0 l/m 0,0 km/h (0 Bft) SO 135 13,1 C 19,1 C
17.08.2012 22:31 19,0 C 68 % 1022,1 hPa 0,0 l/m 0,0 km/h (0 Bft) SO 135 13,0 C 19,0 C
17.08.2012 22:36 18,9 C 68 % 1022,2 hPa 0,0 l/m 0,0 km/h (0 Bft) SO 135 12,9 C 18,9 C
17.08.2012 22:41 18,8 C 69 % 1022,2 hPa 0,0 l/m 0,0 km/h (0 Bft) SO 135 13,0 C 18,8 C
17.08.2012 22:46 18,6 C 70 % 1022,1 hPa 0,0 l/m 0,0 km/h (0 Bft) SO 135 13,0 C 18,6 C
17.08.2012 22:51 18,6 C 70 % 1022,3 hPa 0,0 l/m 0,0 km/h (0 Bft) SO 135 13,0 C 18,6 C
17.08.2012 22:56 18,4 C 70 % 1022,4 hPa 0,0 l/m 0,0 km/h (0 Bft) SO 135 12,8 C 18,4 C
17.08.2012 23:01 18,3 C 70 % 1022,3 hPa 0,0 l/m 0,0 km/h (0 Bft) SO 135 12,7 C 18,3 C
17.08.2012 23:06 18,2 C 71 % 1022,4 hPa 0,0 l/m 0,0 km/h (0 Bft) SO 135 12,9 C 18,2 C
17.08.2012 23:11 18,1 C 71 % 1022,4 hPa 0,0 l/m 0,0 km/h (0 Bft) SO 135 12,8 C 18,1 C
17.08.2012 23:16 18,0 C 72 % 1022,4 hPa 0,0 l/m 0,0 km/h (0 Bft) SO 135 12,9 C 18,0 C
17.08.2012 23:21 17,9 C 72 % 1022,5 hPa 0,0 l/m 0,0 km/h (0 Bft) SO 135 12,8 C 17,9 C
17.08.2012 23:26 17,9 C 73 % 1022,5 hPa 0,0 l/m 0,0 km/h (0 Bft) SO 135 13,0 C 17,9 C
17.08.2012 23:31 17,8 C 73 % 1022,5 hPa 0,0 l/m 0,0 km/h (0 Bft) SO 135 12,9 C 17,8 C
17.08.2012 23:36 17,8 C 73 % 1022,5 hPa 0,0 l/m 0,0 km/h (0 Bft) O-SO 112 12,9 C 17,8 C
17.08.2012 23:41 17,6 C 74 % 1022,5 hPa 0,0 l/m 0,0 km/h (0 Bft) O-SO 112 12,9 C 17,6 C
17.08.2012 23:46 17,5 C 74 % 1022,5 hPa 0,0 l/m 0,0 km/h (0 Bft) O-SO 112 12,8 C 17,5 C
17.08.2012 23:51 17,4 C 74 % 1022,5 hPa 0,0 l/m 0,0 km/h (0 Bft) SO 135 12,7 C 17,4 C
17.08.2012 23:56 17,4 C 75 % 1022,6 hPa 0,0 l/m 0,0 km/h (0 Bft) SO 135 12,9 C 17,4 C
_ Min-Zeit 06:11 16:56 00:01 - 00:01 - - 05:56 06:11
Minimum _ 12,1 C 42 % 1021,2 hPa - 0,0 km/h (0 Bft) - - 10,8 C 12,1 C
_ Max-Zeit 16:21 06:06 10:56 03:01 16:31 - - 09:56 16:21
Maximum _ 27,4 C 92 % 1023,1 hPa 0,5 l/m 9,7 km/h
W-SW (2 Bft)
- - 16,1 C 27,4 C
Durchschnitt _ 19,4 C 71 % 1022,0 hPa #0,5 l/m 0,7 km/h (0 Bft) SO - 13,3 C 19,4 C
(c) by David Heller